| time (UTC) | temp F | wind direction | speed knots | gust knots | rain 1hr in | rain 24hr in | rain mn in | humidity % | barometer mb |
| 20260507091550 | 65 | 324 | 0.9 | 3.5 | 0.00 | 0.03 | 0.03 | 83 | 1013.4 |
| 20260507090055 | 65 | 93 | 0.9 | 2.6 | 0.00 | 0.03 | 0.03 | 84 | 1013.5 |
| 20260507084558 | 64 | 108 | 0.9 | 1.7 | 0.00 | 0.03 | 0.03 | 84 | 1013.4 |
| 20260507083049 | 64 | 80 | 0.0 | 0.0 | 0.00 | 0.03 | 0.03 | 86 | 1013.4 |
| 20260507081546 | 63 | 225 | 0.0 | 1.7 | 0.00 | 0.03 | 0.03 | 87 | 1013.4 |
| 20260507080053 | 63 | 214 | 0.9 | 3.5 | 0.00 | 0.03 | 0.03 | 88 | 1013.2 |
| 20260507074546 | 62 | 233 | 0.0 | 3.5 | 0.00 | 0.03 | 0.03 | 87 | 1013.2 |
| 20260507073046 | 61 | 195 | 0.9 | 2.6 | 0.00 | 0.03 | 0.03 | 87 | 1012.9 |
| 20260507071547 | 61 | 191 | 0.9 | 4.3 | 0.00 | 0.03 | 0.03 | 87 | 1012.5 |
| 20260507070100 | 61 | 187 | 1.7 | 3.5 | 0.00 | 0.03 | 0.03 | 87 | 1012.5 |
| 20260507064550 | 61 | 173 | 1.7 | 3.5 | 0.00 | 0.03 | 0.03 | 87 | 1012.5 |
| 20260507063040 | 61 | 181 | 1.7 | 3.5 | 0.00 | 0.03 | 0.03 | 88 | 1012.4 |
| 20260507061540 | 61 | 156 | 1.7 | 2.6 | 0.00 | 0.03 | 0.03 | 89 | 1012.5 |
| 20260507060038 | 61 | 154 | 0.9 | 2.6 | 0.00 | 0.03 | 0.03 | 89 | 1012.4 |
| 20260507054556 | 62 | 194 | 1.7 | 3.5 | 0.00 | 0.03 | 0.03 | 88 | 1012.3 |
| 20260507053037 | 62 | 177 | 0.0 | 0.0 | 0.00 | 0.03 | 0.03 | 88 | 1012.1 |
| 20260507051539 | 62 | 239 | 0.0 | 1.7 | 0.00 | 0.03 | 0.03 | 88 | 1012.0 |
| 20260507050043 | 62 | 191 | 0.0 | 1.7 | 0.00 | 0.03 | 0.03 | 88 | 1012.1 |
| 20260507044539 | 62 | 152 | 0.9 | 2.6 | 0.00 | 0.03 | 0.03 | 88 | 1012.0 |
| 20260507043034 | 62 | 175 | 0.9 | 2.6 | 0.00 | 0.03 | 0.03 | 89 | 1012.1 |
| 20260507041532 | 62 | 204 | 0.0 | 1.7 | 0.00 | 0.03 | 0.03 | 89 | 1012.1 |
| 20260507040038 | 62 | 194 | 0.0 | 1.7 | 0.00 | 0.03 | 0.03 | 89 | 1012.0 |
| 20260507034532 | 61 | 196 | 1.7 | 3.5 | 0.00 | 0.03 | 0.03 | 89 | 1012.0 |
| 20260507033031 | 61 | 206 | 0.9 | 2.6 | 0.00 | 0.03 | 0.03 | 89 | 1012.1 |
| 20260507031532 | 62 | 139 | 0.0 | 2.6 | 0.00 | 0.03 | 0.03 | 88 | 1011.9 |
| 20260507030026 | 62 | 170 | 0.0 | 2.6 | 0.00 | 0.03 | 0.03 | 89 | 1012.1 |
| 20260507024532 | 62 | 160 | 0.0 | 2.6 | 0.00 | 0.03 | 0.03 | 89 | 1012.2 |
| 20260507023025 | 62 | 148 | 0.9 | 1.7 | 0.00 | 0.03 | 0.03 | 90 | 1012.2 |
| 20260507021529 | 62 | 240 | 0.0 | 2.6 | 0.00 | 0.03 | 0.03 | 90 | 1012.5 |
| 20260507020020 | 62 | 208 | 4.3 | 7.0 | 0.02 | 0.03 | 0.03 | 91 | 1012.8 |
| 20260507014518 | 62 | 270 | 1.7 | 6.1 | 0.03 | 0.03 | 0.03 | 91 | 1013.1 |
| 20260507013016 | 62 | 268 | 4.3 | 7.0 | 0.03 | 0.03 | 0.03 | 91 | 1013.2 |
| 20260507011517 | 63 | 256 | 2.6 | 4.3 | 0.03 | 0.03 | 0.03 | 90 | 1013.3 |
| 20260507010018 | 63 | 316 | 0.9 | 3.5 | 0.01 | 0.01 | 0.01 | 89 | 1013.5 |
| 20260507004509 | 63 | 219 | 0.9 | 3.5 | 0.00 | 0.00 | 0.00 | 88 | 1013.5 |
| 20260507003007 | 64 | 335 | 3.5 | 8.7 | 0.00 | 0.00 | 0.00 | 87 | 1013.6 |
| 20260507001504 | 65 | 310 | 1.7 | 4.3 | 0.00 | 0.00 | 0.00 | 85 | 1013.7 |
| 20260507000004 | 65 | 297 | 0.9 | 3.5 | 0.00 | 0.00 | 0.00 | 85 | 1013.9 |
| 20260506234501 | 65 | 175 | 0.0 | 1.7 | 0.00 | 0.00 | 0.00 | 85 | 1014.1 |
| 20260506233100 | 65 | 187 | 0.0 | 0.0 | 0.00 | 0.00 | 0.00 | 85 | 1014.2 |
| 20260506231557 | 65 | 187 | 0.0 | 1.7 | 0.00 | 0.00 | 0.00 | 85 | 1014.0 |
| 20260506224555 | 65 | 195 | 0.0 | 1.7 | 0.00 | 0.00 | 0.00 | 85 | 1014.1 |
| 20260506223058 | 65 | 36 | 0.9 | 1.7 | 0.00 | 0.00 | 0.00 | 85 | 1014.0 |
| 20260506221601 | 65 | 233 | 0.0 | 1.7 | 0.00 | 0.00 | 0.00 | 85 | 1013.7 |
| 20260506220055 | 65 | 276 | 0.0 | 1.7 | 0.00 | 0.00 | 0.00 | 85 | 1013.7 |
| 20260506214558 | 65 | 344 | 0.9 | 2.6 | 0.00 | 0.00 | 0.00 | 84 | 1013.7 |
| 20260506213058 | 65 | 331 | 0.9 | 1.7 | 0.00 | 0.00 | 0.00 | 84 | 1013.5 |
| 20260506211555 | 65 | 310 | 0.0 | 1.7 | 0.00 | 0.00 | 0.00 | 83 | 1013.2 |
| 20260506210052 | 66 | 291 | 0.0 | 1.7 | 0.00 | 0.00 | 0.00 | 83 | 1013.3 |
| 20260506204551 | 66 | 312 | 0.9 | 2.6 | 0.00 | 0.00 | 0.00 | 82 | 1013.3 |
| 20260506203052 | 65 | 318 | 0.0 | 1.7 | 0.00 | 0.00 | 0.00 | 82 | 1013.0 |
| 20260506201550 | 66 | 333 | 0.0 | 1.7 | 0.00 | 0.00 | 0.00 | 82 | 1012.9 |
| 20260506200049 | 66 | 349 | 0.9 | 5.2 | 0.00 | 0.00 | 0.00 | 82 | 1012.8 |
| 20260506194549 | 66 | 329 | 1.7 | 4.3 | 0.00 | 0.00 | 0.00 | 80 | 1012.6 |
| 20260506193053 | 66 | 348 | 1.7 | 4.3 | 0.00 | 0.00 | 0.00 | 79 | 1012.7 |
| 20260506191548 | 66 | 311 | 0.9 | 2.6 | 0.00 | 0.00 | 0.00 | 78 | 1012.6 |
| 20260506190050 | 66 | 306 | 2.6 | 6.1 | 0.00 | 0.00 | 0.00 | 79 | 1012.4 |
| 20260506184546 | 66 | 312 | 1.7 | 6.1 | 0.00 | 0.00 | 0.00 | 79 | 1012.3 |
| 20260506183045 | 66 | 6 | 3.5 | 7.8 | 0.00 | 0.00 | 0.00 | 81 | 1012.2 |
| 20260506181556 | 67 | 320 | 3.5 | 8.7 | 0.00 | 0.00 | 0.00 | 81 | 1012.3 |
| 20260506180042 | 67 | 17 | 4.3 | 7.8 | 0.00 | 0.00 | 0.00 | 81 | 1012.3 |
| 20260506174539 | 67 | 21 | 1.7 | 5.2 | 0.00 | 0.00 | 0.00 | 80 | 1012.3 |
| 20260506173100 | 67 | 96 | 0.9 | 1.7 | 0.00 | 0.00 | 0.00 | 79 | 1012.4 |
| 20260506171540 | 67 | 171 | 0.0 | 1.7 | 0.00 | 0.00 | 0.00 | 79 | 1012.5 |
| 20260506170047 | 67 | 250 | 0.9 | 2.6 | 0.00 | 0.00 | 0.00 | 81 | 1012.4 |
| 20260506164529 | 66 | 355 | 1.7 | 4.3 | 0.00 | 0.00 | 0.00 | 80 | 1012.7 |
| 20260506163033 | 66 | 347 | 2.6 | 7.8 | 0.00 | 0.00 | 0.00 | 82 | 1012.7 |
| 20260506161529 | 66 | 347 | 1.7 | 6.1 | 0.00 | 0.00 | 0.00 | 83 | 1012.7 |
| 20260506160025 | 66 | 6 | 3.5 | 8.7 | 0.00 | 0.00 | 0.00 | 85 | 1013.0 |
| 20260506154525 | 66 | 335 | 5.2 | 9.6 | 0.00 | 0.00 | 0.00 | 85 | 1013.1 |
| 20260506153025 | 66 | 346 | 4.3 | 8.7 | 0.00 | 0.00 | 0.00 | 84 | 1013.2 |
| 20260506151521 | 66 | 29 | 4.3 | 9.6 | 0.00 | 0.00 | 0.00 | 85 | 1013.3 |
| 20260506150020 | 67 | 14 | 5.2 | 9.6 | 0.00 | 0.00 | 0.00 | 85 | 1013.4 |
| 20260506144519 | 67 | 324 | 5.2 | 10.4 | 0.00 | 0.00 | 0.00 | 82 | 1013.2 |
| 20260506143024 | 68 | 354 | 5.2 | 10.4 | 0.00 | 0.00 | 0.00 | 78 | 1013.1 |
| 20260506141517 | 69 | 339 | 3.5 | 7.0 | 0.00 | 0.00 | 0.00 | 77 | 1013.1 |
| 20260506140020 | 68 | 53 | 2.6 | 5.2 | 0.00 | 0.00 | 0.00 | 78 | 1013.2 |
| 20260506134516 | 67 | 280 | 2.6 | 7.8 | 0.00 | 0.00 | 0.00 | 77 | 1013.3 |
| 20260506133016 | 68 | 20 | 3.5 | 7.8 | 0.00 | 0.00 | 0.00 | 77 | 1013.7 |
| 20260506131514 | 68 | 340 | 0.9 | 5.2 | 0.00 | 0.00 | 0.00 | 76 | 1013.8 |
| 20260506130012 | 68 | 27 | 3.5 | 9.6 | 0.00 | 0.00 | 0.00 | 76 | 1013.9 |
| 20260506124512 | 70 | 5 | 0.9 | 4.3 | 0.00 | 0.00 | 0.00 | 71 | 1013.9 |
| 20260506123011 | 69 | 357 | 0.9 | 4.3 | 0.00 | 0.00 | 0.00 | 73 | 1013.8 |
| 20260506121508 | 68 | 12 | 1.7 | 7.0 | 0.00 | 0.00 | 0.00 | 74 | 1014.0 |
| 20260506120008 | 68 | 19 | 3.5 | 7.8 | 0.00 | 0.00 | 0.00 | 74 | 1014.0 |
| 20260506114508 | 69 | 291 | 3.5 | 8.7 | 0.00 | 0.00 | 0.00 | 71 | 1014.1 |
| 20260506113008 | 69 | 19 | 6.1 | 9.6 | 0.00 | 0.00 | 0.00 | 70 | 1014.1 |
| 20260506111507 | 69 | 347 | 3.5 | 7.8 | 0.00 | 0.00 | 0.00 | 72 | 1014.0 |
| 20260506110006 | 68 | 307 | 0.0 | 2.6 | 0.00 | 0.00 | 0.00 | 72 | 1013.9 |
| 20260506104515 | 68 | 15 | 1.7 | 4.3 | 0.00 | 0.00 | 0.00 | 72 | 1013.8 |
| 20260506103110 | 68 | 316 | 1.7 | 6.1 | 0.00 | 0.00 | 0.00 | 72 | 1013.9 |
| 20260506101506 | 69 | 17 | 1.7 | 5.2 | 0.00 | 0.00 | 0.00 | 70 | 1014.1 |
| 20260506100002 | 69 | 22 | 2.6 | 5.2 | 0.00 | 0.00 | 0.00 | 68 | 1013.9 |
| 20260506094601 | 69 | 26 | 1.7 | 5.2 | 0.00 | 0.00 | 0.00 | 72 | 1014.0 |
| 20260506093100 | 69 | 67 | 0.9 | 6.1 | 0.00 | 0.00 | 0.00 | 73 | 1014.0 |